Theta_e
325 327 327 326 325 325 325 325 325 326 326 328 330 331 331 333 334 335 335 340 346 345 339 335 333 331 329 326 327 326 327 322 320 319 320 320 320 320 322 321 318 317 318 316
328 326 325 324 324 325 326 326 327 326 326 327 330 330 331 334 335 334 331 335 340 338 335 331 329 328 327 326 325 323 323 322 322 321 321 320 321 322 322 318 318 317 317 316
327 326 324 325 326 326 327 327 327 327 327 327 328 328 331 331 334 335 334 334 335 337 332 329 330 329 327 326 325 324 322 321 321 323 323 322 322 322 320 320 319 318 316 316
327 326 326 326 327 327 328 327 327 327 327 326 327 327 331 331 334 336 336 336 335 334 332 330 330 328 327 325 325 326 324 321 320 320 323 323 323 322 321 320 318 317 316 315
327 327 327 327 327 327 328 327 327 327 327 327 327 328 331 329 330 337 336 335 334 332 331 330 328 325 324 324 325 326 324 323 324 323 324 324 322 321 320 318 317 316 314 312
327 326 327 327 326 326 327 328 326 326 327 328 329 327 327 330 332 336 333 331 328 328 329 328 327 327 326 326 325 324 323 324 323 323 322 321 319 317 316 315 313 311 311 311
328 328 327 327 328 328 328 326 323 323 324 325 328 327 332 331 333 334 331 325 322 324 326 326 326 322 318 315 314 313 312 312 311 311 309 311 313 312 312 311 311 311 311 311
329 329 328 328 328 327 326 325 326 325 325 326 326 329 334 334 334 328 324 320 319 320 319 315 314 314 314 313 312 312 312 312 310 311 310 311 311 310 310 310 310 310 310 310
330 330 327 326 326 326 325 328 327 328 328 329 327 329 330 333 334 328 323 320 317 315 315 315 315 314 313 312 311 311 311 311 310 310 310 311 310 310 310 310 310 310 310 310
329 329 327 326 326 327 326 327 328 329 330 328 326 326 332 330 329 332 327 321 318 316 317 317 316 314 312 311 310 310 310 310 310 310 310 310 310 310 310 310 310 310 310 310
327 328 326 325 326 326 327 327 326 327 328 328 327 326 325 327 326 329 326 322 318 317 318 316 314 314 312 311 311 310 310 309 309 309 309 309 309 310 310 310 310 310 310 310
329 327 327 326 324 325 325 326 326 327 325 324 325 327 324 323 324 325 322 319 317 318 316 316 314 313 312 311 310 310 309 309 309 309 309 309 309 309 309 309 310 310 310 310
328 328 327 326 327 326 326 324 325 326 329 328 327 326 324 321 321 321 319 317 318 317 315 314 314 312 312 311 310 309 309 308 308 308 308 309 309 309 309 309 309 309 310 310
324 328 327 326 326 326 325 324 323 326 329 327 326 327 327 323 321 319 318 318 316 315 315 313 312 312 311 309 308 308 308 308 308 308 308 308 308 308 308 308 308 309 309 309
330 328 326 325 325 325 325 324 322 324 326 328 326 326 325 323 321 319 318 316 315 316 315 313 312 310 309 308 308 308 308 308 308 308 308 308 308 307 308 308 308 308 308 308
329 326 326 326 324 325 324 323 324 323 324 325 324 324 321 320 319 319 319 318 317 315 313 311 309 308 308 308 307 307 307 307 307 307 308 308 307 307 307 307 307 307 307 307
326 325 326 327 325 324 324 325 324 324 324 324 326 323 320 320 320 320 317 316 314 313 310 309 308 307 308 306 306 306 306 306 306 307 306 307 307 307 307 307 307 307 306 306
327 328 326 327 325 328 326 323 324 325 323 323 321 320 319 319 318 316 315 314 312 310 309 308 308 306 306 306 307 307 306 305 305 305 306 306 306 307 307 306 306 305 305 304
325 327 328 328 328 326 324 324 323 325 324 321 320 319 318 317 315 316 313 310 309 309 308 307 306 306 307 307 307 306 305 305 305 305 305 306 306 306 305 304 303 302 303 303
327 326 328 328 329 330 326 324 323 323 325 319 319 318 317 315 314 314 311 309 308 307 306 307 307 307 307 306 306 305 305 305 305 305 305 304 304 304 302 301 301 301 301 301
327 328 328 327 328 325 325 323 323 325 325 319 318 317 315 313 312 311 309 309 307 306 307 307 307 307 306 306 305 305 305 305 305 305 303 303 302 302 301 301 301 301 301 300
327 328 327 327 327 328 322 322 322 322 319 318 316 313 311 311 310 308 308 307 307 307 307 307 306 306 306 305 306 305 306 306 305 304 304 302 301 301 301 301 301 301 300 299
327 325 327 325 325 322 320 321 319 318 318 315 313 311 310 310 308 307 307 307 308 307 307 305 305 305 305 305 306 305 304 305 305 304 302 301 301 301 301 301 300 300 299 299
323 323 323 323 322 321 319 317 316 315 313 311 310 310 309 308 307 307 308 308 307 307 306 305 305 305 306 306 304 303 303 302 302 302 302 301 301 301 301 302 300 300 300 300
322 321 322 322 322 319 318 317 315 313 311 310 309 309 308 307 308 308 308 307 307 305 305 305 307 305 303 303 302 302 302 301 301 301 302 302 301 302 302 301 302 301 300 300
320 321 323 324 320 320 319 316 314 313 311 309 309 308 306 308 308 309 308 308 305 304 305 307 303 303 302 302 302 302 303 302 302 302 302 302 302 302 302 302 302 302 302 303
Wind_Speed
3 3 7 8 6 5 3 2 5 5 5 7 5 4 6 9 10 10 8 3 5 8 9 11 11 15 18 21 22 20 17 14 7 4 5 6 6 12 17 16 21 23 22 25
7 10 6 3 3 2 2 5 7 3 2 7 2 5 2 6 10 11 6 4 8 9 11 14 16 18 17 20 17 15 11 6 7 12 11 14 13 18 20 18 23 25 26 21
10 8 3 3 3 6 4 9 8 10 11 11 8 15 10 5 8 12 13 10 7 9 12 12 14 17 18 23 22 17 12 11 14 15 18 19 17 19 18 16 17 20 23 28
6 4 2 3 5 7 2 7 8 13 15 12 5 11 11 6 8 11 12 12 10 9 10 11 15 16 19 19 8 2 9 16 10 9 13 14 16 17 18 23 15 26 19 20
6 4 2 3 5 5 7 8 11 14 16 10 9 7 8 4 3 10 12 12 11 11 10 15 16 14 19 19 7 8 10 11 10 11 14 17 17 14 15 15 17 19 18 19
6 3 5 5 1 3 6 13 19 12 6 9 7 4 4 7 7 9 10 14 14 14 17 17 16 13 11 6 4 7 6 5 8 11 13 15 17 16 16 18 20 18 16 13
2 3 3 7 11 4 13 15 11 7 9 7 4 7 9 8 7 8 11 12 11 11 13 13 10 9 13 12 8 6 6 8 9 11 14 14 13 15 14 15 14 13 12 10
6 3 4 6 7 9 13 9 7 12 10 12 8 5 6 8 13 13 12 12 11 13 13 16 15 12 10 9 10 10 11 12 15 13 13 10 11 10 10 10 9 9 9 10
6 1 4 7 5 7 10 5 7 9 14 9 2 3 10 7 8 10 10 11 11 11 12 11 10 10 11 11 11 12 13 12 12 11 10 9 8 8 8 10 11 10 11 11
4 8 4 5 5 6 7 5 5 4 7 9 8 12 10 7 5 5 8 8 11 11 10 9 10 11 11 13 13 15 15 15 14 11 9 8 9 10 10 11 12 13 12 13
4 3 6 8 5 7 1 4 6 4 6 9 10 8 10 11 11 3 6 8 10 9 8 9 11 13 14 14 15 16 16 14 11 10 11 11 10 10 10 11 13 13 13 13
4 4 7 7 1 2 4 6 8 6 10 11 10 9 9 11 11 8 10 8 8 7 8 11 14 16 14 16 17 17 15 11 10 10 11 10 9 10 11 13 13 11 12 12
2 1 8 2 7 7 3 8 6 7 7 10 9 5 10 12 10 9 8 6 4 8 15 16 16 13 15 18 18 15 12 11 11 11 10 10 10 10 11 12 12 11 11 12
1 4 9 10 12 6 10 12 8 7 8 10 8 12 14 8 5 6 6 6 10 13 16 12 13 17 19 18 13 12 12 12 12 11 10 10 11 11 12 12 12 12 13 12
3 9 10 12 9 9 12 10 10 11 6 6 11 9 8 6 5 7 6 11 13 9 8 12 16 19 15 11 11 12 12 12 11 11 10 10 12 12 11 11 12 13 13 12
2 11 10 13 14 6 11 5 7 3 4 7 5 5 5 3 2 3 8 9 11 9 11 14 17 13 11 12 13 13 14 14 14 14 13 12 13 11 11 10 12 13 13 13
6 9 9 14 7 8 13 3 2 1 2 7 8 8 4 7 7 10 13 10 10 12 14 16 11 10 12 13 13 13 14 14 14 16 16 16 16 13 10 11 11 13 14 14
6 7 8 9 10 10 6 6 6 9 6 3 4 8 8 8 9 6 8 11 12 14 14 11 9 11 11 12 13 13 14 14 15 17 16 15 15 12 10 10 12 13 14 14
1 3 2 3 4 3 4 3 2 4 2 4 6 6 8 11 13 8 9 11 12 12 9 9 10 11 13 14 13 16 16 17 15 17 15 14 12 10 10 14 15 14 14 10
1 3 4 3 4 3 3 3 2 5 3 6 6 8 12 16 8 12 12 11 9 8 8 10 12 13 13 14 17 17 16 18 16 14 13 12 12 13 14 15 15 13 12 10
2 2 2 2 1 2 3 2 3 4 5 6 6 8 11 10 8 8 9 7 7 8 10 11 14 15 15 14 17 14 15 17 14 11 13 12 13 14 14 15 15 14 12 10
4 4 2 2 3 1 4 2 5 6 5 4 6 8 8 6 6 6 6 6 7 10 12 13 14 15 15 15 13 15 17 15 12 11 12 14 15 17 13 13 12 13 11 10
2 4 4 4 4 4 4 6 6 4 4 5 5 6 6 5 6 6 6 6 9 11 13 13 14 13 13 14 14 15 16 15 13 11 13 16 14 12 13 12 12 15 14 12
3 1 4 4 4 5 6 7 7 7 6 6 6 5 6 7 7 6 6 9 11 13 13 13 14 14 14 12 15 17 16 15 12 12 12 11 12 12 13 15 15 15 13 14
6 1 4 2 4 5 5 6 8 7 7 6 6 6 7 8 7 6 8 10 13 13 13 13 15 14 14 14 14 12 13 14 11 12 12 12 13 15 16 18 19 18 18 18
3 4 3 3 3 3 7 9 7 6 5 5 5 7 8 7 5 5 8 11 11 11 12 14 17 20 16 13 14 14 14 14 15 16 16 17 16 15 16 19 21 22 22 21
Wind_Direction
192 226 33 41 30 33 57 0 321 62 32 302 350 338 13 5 10 4 5 178 171 159 143 157 147 150 153 172 172 174 176 151 121 342 320 321 284 257 276 294 279 289 290 303
217 69 61 90 116 111 339 310 29 162 37 287 214 262 154 48 40 36 20 83 140 129 128 134 136 140 140 155 149 136 140 165 272 303 278 239 258 271 289 282 287 292 296 307
49 65 104 184 135 296 70 1 357 336 318 262 266 267 177 115 66 57 59 74 103 138 145 147 148 147 143 130 123 112 83 352 318 268 266 267 276 282 289 292 286 280 299 306
50 73 205 216 72 325 348 358 310 312 315 306 341 295 158 118 106 68 61 65 81 107 140 150 151 147 150 153 105 29 320 353 279 254 280 284 277 278 281 285 283 292 306 312
70 41 15 49 38 326 22 325 312 304 301 308 222 264 123 100 123 71 59 59 72 92 112 129 144 152 168 180 201 342 339 299 273 268 271 275 282 289 291 290 295 302 309 308
87 87 25 20 298 359 307 300 308 276 261 265 74 325 354 35 24 104 82 73 85 106 128 136 145 152 158 179 284 331 352 326 304 303 297 293 288 286 290 294 300 305 306 311
198 128 123 355 313 246 330 331 314 315 297 314 61 296 51 63 30 45 109 89 97 119 120 119 114 80 60 54 48 36 4 341 325 310 297 293 292 293 300 302 307 308 310 305
332 202 20 10 357 329 312 324 311 314 322 320 291 281 77 75 77 85 99 101 99 96 91 83 77 75 62 41 24 8 352 341 331 323 314 308 306 308 316 310 313 318 310 306
314 360 99 31 1 334 349 302 343 287 273 259 351 115 160 121 110 104 100 98 97 96 93 85 69 49 30 17 1 357 345 337 329 324 320 322 330 331 325 326 321 313 315 305
59 298 88 39 273 120 354 4 294 285 305 316 317 315 50 35 358 136 134 117 118 110 93 67 36 24 13 359 349 343 340 336 334 335 336 340 336 329 330 329 323 316 312 306
339 290 325 285 28 347 283 16 340 290 279 311 308 339 13 2 351 359 109 124 117 103 70 45 20 357 348 346 340 338 334 334 334 341 341 337 333 330 325 320 315 308 301 302
53 311 299 337 36 306 342 353 335 323 312 310 298 290 26 19 25 73 108 117 106 69 43 0 349 348 336 337 336 334 335 341 336 337 333 328 328 326 322 320 313 308 304 303
55 283 304 226 167 194 324 338 308 300 280 282 299 323 78 42 51 81 110 112 82 18 347 347 342 347 336 333 332 336 338 337 334 330 327 320 323 327 326 322 321 320 318 318
312 281 282 294 328 334 300 319 328 289 285 312 329 343 25 40 72 100 101 40 360 339 336 342 342 335 332 332 339 344 339 334 329 326 320 324 334 334 331 332 334 337 335 331
289 290 301 288 295 290 299 315 315 299 326 290 351 344 21 26 57 66 28 346 333 323 335 340 337 336 336 348 348 343 338 338 336 327 322 328 330 330 328 340 345 341 336 332
255 282 287 281 275 279 290 322 287 285 324 287 302 359 29 41 115 349 333 334 341 340 341 342 338 345 351 349 347 343 339 339 334 332 329 329 321 321 321 337 338 341 341 337
288 282 272 278 303 297 274 131 311 276 357 336 342 19 346 353 335 338 349 358 350 348 343 340 346 352 349 345 340 332 332 335 332 330 329 323 317 318 319 330 339 342 340 341
285 276 276 279 286 277 68 55 359 346 355 3 22 1 9 358 345 1 15 8 353 342 340 348 355 347 342 335 333 341 342 341 336 333 328 332 326 319 328 339 343 344 341 333
270 273 255 261 289 132 84 320 127 307 49 55 10 355 0 344 306 83 18 5 348 348 2 358 347 341 333 334 337 341 344 334 332 338 338 342 352 353 353 340 333 341 339 332
110 244 247 263 274 321 95 136 223 305 174 44 1 3 349 334 336 44 358 355 1 11 2 353 345 341 339 349 348 344 347 343 339 341 342 349 354 344 353 350 346 347 336 325
305 283 275 129 191 209 52 117 276 274 43 47 20 2 356 360 1 342 350 5 12 9 355 351 347 340 342 341 338 342 342 344 349 357 3 355 353 358 344 345 346 346 352 349
333 324 360 300 239 121 48 183 316 59 75 48 19 8 4 6 4 5 17 25 13 360 353 349 347 346 349 346 347 346 349 355 1 6 8 358 353 349 351 354 7 17 20 40
315 8 338 6 18 93 68 69 89 75 79 40 25 16 23 37 50 65 59 30 9 1 355 352 352 351 352 348 348 352 351 355 355 359 344 352 0 1 3 36 45 35 47 61
144 29 306 298 121 114 119 108 101 98 87 61 43 51 68 86 89 75 49 22 9 2 2 0 355 352 354 349 343 351 348 349 354 0 5 8 13 34 62 56 41 42 55 69
37 255 329 293 119 132 136 132 126 105 84 62 64 82 98 104 86 60 35 19 12 11 14 9 8 2 4 9 16 16 23 26 37 46 38 41 48 77 60 51 52 65 72 75
134 344 322 31 39 15 116 147 134 108 82 69 91 101 112 101 74 46 31 21 22 26 23 27 35 36 38 40 34 34 30 44 47 49 57 69 70 61 76 73 66 66 70 74